| time (UTC) | temp C | wind direction | speed KPH | gust KPH | rain 1hr cm | rain 24hr cm | rain mn cm | humidity % | barometer mb |
| 20260901201514 | 36 | 20 | 3.2 | 4.8 | 0.00 | 0.00 | 0.00 | 46 | 1017.0 |
| 20260901201008 | 36 | 326 | 3.2 | 4.8 | 0.00 | 0.00 | 0.00 | 46 | 1017.0 |
| 20260901200503 | 35 | 226 | 0.0 | 3.2 | 0.00 | 0.00 | 0.00 | 48 | 1017.2 |
| 20260901200002 | 35 | 229 | 0.0 | 3.2 | 0.00 | 0.00 | 0.00 | 49 | 1017.1 |
| 20260901195500 | 35 | 235 | 1.6 | 3.2 | 0.00 | 0.00 | 0.00 | 49 | 1017.1 |
| 20260901194954 | 36 | 19 | 3.2 | 4.8 | 0.00 | 0.00 | 0.00 | 45 | 1017.1 |
| 20260901194450 | 36 | 221 | 0.0 | 3.2 | 0.00 | 0.00 | 0.00 | 45 | 1017.2 |
| 20260901193946 | 36 | 211 | 0.0 | 0.0 | 0.00 | 0.00 | 0.00 | 46 | 1017.3 |
| 20260901193445 | 36 | 0 | 4.8 | 4.8 | 0.00 | 0.00 | 0.00 | 45 | 1017.2 |
| 20260901192944 | 36 | 271 | 0.0 | 4.8 | 0.00 | 0.00 | 0.00 | 46 | 1017.1 |
| 20260901192440 | 36 | 228 | 0.0 | 3.2 | 0.00 | 0.00 | 0.00 | 45 | 1017.1 |
| 20260901191936 | 36 | 265 | 1.6 | 3.2 | 0.00 | 0.00 | 0.00 | 46 | 1017.3 |
| 20260901191432 | 36 | 219 | 0.0 | 1.6 | 0.00 | 0.00 | 0.00 | 44 | 1017.4 |
| 20260901190928 | 36 | 337 | 1.6 | 1.6 | 0.00 | 0.00 | 0.00 | 46 | 1017.4 |
| 20260901190427 | 36 | 157 | 0.0 | 3.2 | 0.00 | 0.00 | 0.00 | 46 | 1017.5 |
| 20260901185925 | 35 | 239 | 0.0 | 1.6 | 0.00 | 0.00 | 0.00 | 50 | 1017.6 |
| 20260901185426 | 36 | 232 | 0.0 | 1.6 | 0.00 | 0.00 | 0.00 | 44 | 1017.5 |
| 20260901184926 | 36 | 20 | 3.2 | 3.2 | 0.00 | 0.00 | 0.00 | 43 | 1017.6 |
| 20260901184421 | 36 | 253 | 1.6 | 3.2 | 0.00 | 0.00 | 0.00 | 45 | 1017.6 |
| 20260901183916 | 36 | 353 | 1.6 | 4.8 | 0.00 | 0.00 | 0.00 | 45 | 1017.9 |
| 20260901183416 | 36 | 24 | 4.8 | 6.4 | 0.00 | 0.00 | 0.00 | 46 | 1018.0 |
| 20260901182912 | 36 | 231 | 0.0 | 1.6 | 0.00 | 0.00 | 0.00 | 49 | 1018.2 |
| 20260901182408 | 36 | 206 | 3.2 | 4.8 | 0.00 | 0.00 | 0.00 | 48 | 1017.9 |
| 20260901181902 | 35 | 237 | 0.0 | 1.6 | 0.00 | 0.00 | 0.00 | 47 | 1017.8 |
| 20260901181356 | 36 | 53 | 3.2 | 3.2 | 0.00 | 0.00 | 0.00 | 44 | 1017.9 |
| 20260901180855 | 36 | 268 | 4.8 | 4.8 | 0.00 | 0.00 | 0.00 | 47 | 1017.9 |
| 20260901180354 | 35 | 235 | 0.0 | 1.6 | 0.00 | 0.00 | 0.00 | 48 | 1017.7 |
| 20260901175853 | 35 | 90 | 3.2 | 4.8 | 0.00 | 0.00 | 0.00 | 49 | 1017.7 |
| 20260901175348 | 35 | 238 | 1.6 | 4.8 | 0.00 | 0.00 | 0.00 | 49 | 1017.6 |
| 20260901174843 | 36 | 237 | 0.0 | 4.8 | 0.00 | 0.00 | 0.00 | 56 | 1017.6 |
| 20260901174339 | 36 | 65 | 0.0 | 0.0 | 0.00 | 0.00 | 0.00 | 47 | 1017.8 |
| 20260901173834 | 36 | 254 | 1.6 | 4.8 | 0.00 | 0.00 | 0.00 | 50 | 1017.7 |
| 20260901173329 | 35 | 237 | 0.0 | 1.6 | 0.00 | 0.00 | 0.00 | 51 | 1017.8 |
| 20260901172826 | 35 | 97 | 1.6 | 4.8 | 0.00 | 0.00 | 0.00 | 52 | 1017.8 |
| 20260901172325 | 35 | 219 | 1.6 | 3.2 | 0.00 | 0.00 | 0.00 | 48 | 1018.0 |
| 20260901171823 | 36 | 240 | 0.0 | 1.6 | 0.00 | 0.00 | 0.00 | 55 | 1017.8 |
| 20260901171323 | 35 | 263 | 0.0 | 1.6 | 0.00 | 0.00 | 0.00 | 50 | 1018.0 |
| 20260901170822 | 35 | 6 | 1.6 | 4.8 | 0.00 | 0.00 | 0.00 | 49 | 1017.9 |
| 20260901170316 | 35 | 236 | 3.2 | 3.2 | 0.00 | 0.00 | 0.00 | 52 | 1017.8 |
| 20260901165815 | 35 | 91 | 3.2 | 4.8 | 0.00 | 0.00 | 0.00 | 50 | 1017.8 |
| 20260901165310 | 34 | 209 | 1.6 | 3.2 | 0.00 | 0.00 | 0.00 | 51 | 1017.9 |
| 20260901164807 | 35 | 219 | 1.6 | 6.4 | 0.00 | 0.00 | 0.00 | 48 | 1018.1 |
| 20260901164302 | 35 | 260 | 1.6 | 4.8 | 0.00 | 0.00 | 0.00 | 52 | 1018.4 |
| 20260901163757 | 35 | 213 | 1.6 | 6.4 | 0.00 | 0.00 | 0.00 | 49 | 1018.3 |
| 20260901163256 | 35 | 237 | 0.0 | 3.2 | 0.00 | 0.00 | 0.00 | 52 | 1018.3 |
| 20260901162751 | 35 | 243 | 0.0 | 1.6 | 0.00 | 0.00 | 0.00 | 53 | 1018.6 |
| 20260901162251 | 34 | 216 | 3.2 | 4.8 | 0.00 | 0.00 | 0.00 | 52 | 1018.6 |
| 20260901161749 | 35 | 346 | 3.2 | 12.9 | 0.00 | 0.00 | 0.00 | 52 | 1018.6 |
| 20260901161244 | 34 | 272 | 1.6 | 6.4 | 0.00 | 0.00 | 0.00 | 54 | 1018.8 |
| 20260901160740 | 33 | 229 | 0.0 | 1.6 | 0.00 | 0.00 | 0.00 | 58 | 1018.8 |
| 20260901160236 | 33 | 218 | 0.0 | 3.2 | 0.00 | 0.00 | 0.00 | 57 | 1018.7 |
| 20260901155735 | 33 | 165 | 0.0 | 3.2 | 0.00 | 0.00 | 0.00 | 59 | 1018.8 |
| 20260901155230 | 33 | 236 | 1.6 | 6.4 | 0.00 | 0.00 | 0.00 | 61 | 1018.7 |
| 20260901154725 | 33 | 237 | 1.6 | 1.6 | 0.00 | 0.00 | 0.00 | 61 | 1018.7 |
| 20260901154220 | 33 | 241 | 3.2 | 3.2 | 0.00 | 0.00 | 0.00 | 61 | 1019.0 |
| 20260901153716 | 33 | 217 | 0.0 | 3.2 | 0.00 | 0.00 | 0.00 | 66 | 1018.7 |
| 20260901153209 | 33 | 201 | 1.6 | 1.6 | 0.00 | 0.00 | 0.00 | 60 | 1018.8 |
| 20260901152704 | 33 | 233 | 0.0 | 3.2 | 0.00 | 0.00 | 0.00 | 66 | 1019.0 |
| 20260901152202 | 32 | 51 | 1.6 | 3.2 | 0.00 | 0.00 | 0.00 | 64 | 1018.9 |
| 20260901151659 | 33 | 223 | 1.6 | 3.2 | 0.00 | 0.00 | 0.00 | 64 | 1019.2 |
| 20260901151158 | 32 | 125 | 1.6 | 1.6 | 0.00 | 0.00 | 0.00 | 63 | 1019.1 |
| 20260901150658 | 33 | 297 | 0.0 | 6.4 | 0.00 | 0.00 | 0.00 | 65 | 1019.2 |
| 20260901150156 | 32 | 230 | 1.6 | 3.2 | 0.00 | 0.00 | 0.00 | 70 | 1018.9 |
| 20260901145653 | 32 | 220 | 1.6 | 3.2 | 0.00 | 0.00 | 0.00 | 65 | 1019.2 |
| 20260901145148 | 32 | 351 | 1.6 | 3.2 | 0.00 | 0.00 | 0.00 | 66 | 1019.2 |
| 20260901144644 | 32 | 228 | 0.0 | 3.2 | 0.00 | 0.00 | 0.00 | 66 | 1019.3 |
| 20260901144138 | 31 | 224 | 0.0 | 0.0 | 0.00 | 0.00 | 0.00 | 68 | 1019.4 |
| 20260901143633 | 31 | 211 | 0.0 | 0.0 | 0.00 | 0.00 | 0.00 | 71 | 1019.5 |
| 20260901143130 | 31 | 88 | 1.6 | 6.4 | 0.00 | 0.00 | 0.00 | 72 | 1019.4 |
| 20260901142626 | 30 | 219 | 0.0 | 0.0 | 0.00 | 0.00 | 0.00 | 75 | 1019.2 |
| 20260901142125 | 30 | 223 | 0.0 | 3.2 | 0.00 | 0.00 | 0.00 | 74 | 1019.2 |
| 20260901141620 | 31 | 219 | 1.6 | 3.2 | 0.00 | 0.00 | 0.00 | 71 | 1019.3 |
| 20260901141120 | 31 | 223 | 0.0 | 1.6 | 0.00 | 0.00 | 0.00 | 70 | 1019.3 |
| 20260901140619 | 31 | 246 | 1.6 | 1.6 | 0.00 | 0.00 | 0.00 | 73 | 1019.4 |
| 20260901140118 | 31 | 216 | 0.0 | 1.6 | 0.00 | 0.00 | 0.00 | 72 | 1019.3 |
| 20260901135618 | 30 | 172 | 1.6 | 3.2 | 0.00 | 0.00 | 0.00 | 74 | 1019.3 |
| 20260901135113 | 30 | 206 | 0.0 | 1.6 | 0.00 | 0.00 | 0.00 | 75 | 1019.3 |
| 20260901134609 | 30 | 220 | 0.0 | 1.6 | 0.00 | 0.00 | 0.00 | 76 | 1019.4 |
| 20260901134104 | 30 | 199 | 0.0 | 0.0 | 0.00 | 0.00 | 0.00 | 76 | 1019.2 |
| 20260901133603 | 30 | 197 | 0.0 | 1.6 | 0.00 | 0.00 | 0.00 | 77 | 1019.2 |
| 20260901133102 | 29 | 224 | 0.0 | 1.6 | 0.00 | 0.00 | 0.00 | 79 | 1019.3 |
| 20260901132556 | 30 | 230 | 1.6 | 1.6 | 0.00 | 0.00 | 0.00 | 77 | 1019.3 |
| 20260901132050 | 28 | 229 | 0.0 | 0.0 | 0.00 | 0.00 | 0.00 | 80 | 1019.3 |
| 20260901131551 | 28 | 233 | 1.6 | 1.6 | 0.00 | 0.00 | 0.00 | 79 | 1019.2 |
| 20260901131046 | 28 | 218 | 0.0 | 0.0 | 0.00 | 0.00 | 0.00 | 82 | 1019.3 |
| 20260901130545 | 28 | 201 | 0.0 | 0.0 | 0.00 | 0.00 | 0.00 | 83 | 1019.3 |
| 20260901130044 | 28 | 139 | 0.0 | 0.0 | 0.00 | 0.00 | 0.00 | 82 | 1019.3 |
| 20260901125542 | 28 | 220 | 0.0 | 1.6 | 0.00 | 0.00 | 0.00 | 82 | 1019.2 |
| 20260901125038 | 28 | 166 | 0.0 | 1.6 | 0.00 | 0.00 | 0.00 | 82 | 1019.4 |
| 20260901124538 | 27 | 190 | 0.0 | 1.6 | 0.00 | 0.00 | 0.00 | 84 | 1019.4 |
| 20260901124033 | 27 | 224 | 0.0 | 1.6 | 0.00 | 0.00 | 0.00 | 84 | 1019.3 |
| 20260901123527 | 27 | 212 | 0.0 | 1.6 | 0.00 | 0.00 | 0.00 | 84 | 1019.3 |
| 20260901123022 | 27 | 187 | 0.0 | 0.0 | 0.00 | 0.00 | 0.00 | 86 | 1019.4 |
| 20260901122520 | 26 | 187 | 0.0 | 0.0 | 0.00 | 0.00 | 0.00 | 89 | 1019.5 |
| 20260901122019 | 25 | 195 | 0.0 | 0.0 | 0.00 | 0.00 | 0.00 | 91 | 1019.3 |
| 20260901121514 | 25 | 255 | 0.0 | 0.0 | 0.00 | 0.00 | 0.00 | 94 | 1019.5 |
| 20260901121009 | 24 | 244 | 0.0 | 0.0 | 0.00 | 0.00 | 0.00 | 96 | 1019.4 |
| 20260901120503 | 24 | 244 | 0.0 | 0.0 | 0.00 | 0.00 | 0.00 | 96 | 1019.5 |
| 20260901115959 | 24 | 244 | 0.0 | 0.0 | 0.00 | 0.00 | 0.00 | 97 | 1019.5 |
| 20260901115454 | 23 | 244 | 0.0 | 0.0 | 0.00 | 0.00 | 0.00 | 98 | 1019.3 |
| 20260901114951 | 23 | 244 | 0.0 | 0.0 | 0.00 | 0.00 | 0.00 | 99 | 1019.3 |
| 20260901114446 | 23 | 244 | 0.0 | 0.0 | 0.00 | 0.00 | 0.00 | 99 | 1019.2 |
| 20260901113944 | 23 | 246 | 0.0 | 0.0 | 0.00 | 0.00 | 0.00 | 99 | 1019.3 |
| 20260901113444 | 23 | 246 | 0.0 | 0.0 | 0.00 | 0.00 | 0.00 | 99 | 1019.1 |
| 20260901112940 | 23 | 246 | 0.0 | 0.0 | 0.00 | 0.00 | 0.00 | 99 | 1018.9 |
| 20260901112435 | 23 | 248 | 0.0 | 0.0 | 0.00 | 0.00 | 0.00 | 99 | 1019.0 |
| 20260901111929 | 22 | 249 | 0.0 | 0.0 | 0.00 | 0.00 | 0.00 | 99 | 1019.0 |
| 20260901111428 | 22 | 230 | 0.0 | 0.0 | 0.00 | 0.00 | 0.00 | 99 | 1018.9 |
| 20260901110926 | 22 | 230 | 0.0 | 0.0 | 0.00 | 0.00 | 0.00 | 99 | 1018.8 |
| 20260901110423 | 22 | 230 | 0.0 | 0.0 | 0.00 | 0.00 | 0.00 | 99 | 1018.7 |
| 20260901105918 | 22 | 230 | 0.0 | 0.0 | 0.00 | 0.00 | 0.00 | 99 | 1018.8 |
| 20260901105414 | 22 | 230 | 0.0 | 0.0 | 0.00 | 0.00 | 0.00 | 99 | 1018.8 |
| 20260901104909 | 22 | 230 | 0.0 | 0.0 | 0.00 | 0.00 | 0.00 | 99 | 1018.8 |
| 20260901104404 | 22 | 233 | 0.0 | 0.0 | 0.00 | 0.00 | 0.00 | 99 | 1018.7 |
| 20260901103900 | 22 | 237 | 0.0 | 0.0 | 0.00 | 0.00 | 0.00 | 99 | 1018.9 |
| 20260901103354 | 22 | 241 | 0.0 | 0.0 | 0.00 | 0.00 | 0.00 | 99 | 1018.8 |
| 20260901102849 | 22 | 242 | 0.0 | 0.0 | 0.00 | 0.00 | 0.00 | 99 | 1018.7 |
| 20260901102348 | 22 | 243 | 0.0 | 0.0 | 0.00 | 0.00 | 0.00 | 99 | 1018.8 |
| 20260901101844 | 22 | 242 | 0.0 | 0.0 | 0.00 | 0.00 | 0.00 | 99 | 1018.6 |
| 20260901101339 | 22 | 242 | 0.0 | 0.0 | 0.00 | 0.00 | 0.00 | 99 | 1018.6 |
| 20260901100839 | 22 | 243 | 0.0 | 0.0 | 0.00 | 0.00 | 0.00 | 99 | 1018.7 |
| 20260901100339 | 22 | 243 | 0.0 | 0.0 | 0.00 | 0.00 | 0.00 | 99 | 1018.9 |
| 20260901095833 | 22 | 242 | 0.0 | 0.0 | 0.00 | 0.00 | 0.00 | 99 | 1018.8 |
| 20260901095330 | 22 | 243 | 0.0 | 0.0 | 0.00 | 0.00 | 0.00 | 99 | 1018.7 |
| 20260901094824 | 22 | 243 | 0.0 | 0.0 | 0.00 | 0.00 | 0.00 | 99 | 1018.8 |
| 20260901094319 | 22 | 243 | 0.0 | 0.0 | 0.00 | 0.00 | 0.00 | 99 | 1018.7 |
| 20260901093815 | 22 | 243 | 0.0 | 0.0 | 0.00 | 0.00 | 0.00 | 99 | 1018.5 |
| 20260901093313 | 22 | 239 | 0.0 | 0.0 | 0.00 | 0.00 | 0.00 | 99 | 1018.7 |
| 20260901092810 | 22 | 239 | 0.0 | 0.0 | 0.00 | 0.00 | 0.00 | 99 | 1018.7 |
| 20260901092306 | 22 | 239 | 0.0 | 0.0 | 0.00 | 0.00 | 0.00 | 99 | 1018.5 |
| 20260901091801 | 22 | 239 | 0.0 | 0.0 | 0.00 | 0.00 | 0.00 | 99 | 1018.8 |
| 20260901091256 | 22 | 239 | 0.0 | 0.0 | 0.00 | 0.00 | 0.00 | 99 | 1018.8 |
| 20260901090755 | 22 | 239 | 0.0 | 0.0 | 0.00 | 0.00 | 0.00 | 99 | 1018.8 |
| 20260901090250 | 22 | 239 | 0.0 | 0.0 | 0.00 | 0.00 | 0.00 | 99 | 1018.7 |
| 20260901085746 | 22 | 239 | 0.0 | 0.0 | 0.00 | 0.00 | 0.00 | 99 | 1018.6 |
| 20260901085242 | 22 | 239 | 0.0 | 0.0 | 0.00 | 0.00 | 0.00 | 99 | 1018.5 |
| 20260901084738 | 22 | 239 | 0.0 | 0.0 | 0.00 | 0.00 | 0.00 | 99 | 1018.5 |
| 20260901084235 | 22 | 239 | 0.0 | 0.0 | 0.00 | 0.00 | 0.00 | 99 | 1018.5 |
| 20260901083734 | 22 | 231 | 0.0 | 0.0 | 0.00 | 0.00 | 0.00 | 99 | 1018.4 |
| 20260901083234 | 22 | 231 | 0.0 | 0.0 | 0.00 | 0.00 | 0.00 | 99 | 1018.7 |
| 20260901082732 | 22 | 243 | 0.0 | 0.0 | 0.00 | 0.00 | 0.00 | 99 | 1018.7 |
| 20260901082228 | 22 | 244 | 0.0 | 0.0 | 0.00 | 0.00 | 0.00 | 99 | 1018.9 |
| 20260901081723 | 22 | 242 | 0.0 | 0.0 | 0.00 | 0.00 | 0.00 | 99 | 1019.0 |
| 20260901081223 | 22 | 243 | 0.0 | 0.0 | 0.00 | 0.00 | 0.00 | 99 | 1018.6 |
| 20260901080718 | 22 | 243 | 0.0 | 0.0 | 0.00 | 0.00 | 0.00 | 99 | 1018.9 |
| 20260901080217 | 22 | 242 | 0.0 | 0.0 | 0.00 | 0.00 | 0.00 | 99 | 1018.6 |
| 20260901075711 | 22 | 242 | 0.0 | 0.0 | 0.00 | 0.00 | 0.00 | 99 | 1018.9 |
| 20260901075206 | 22 | 243 | 0.0 | 0.0 | 0.00 | 0.00 | 0.00 | 99 | 1018.9 |
| 20260901074706 | 22 | 242 | 0.0 | 0.0 | 0.00 | 0.00 | 0.00 | 99 | 1019.1 |
| 20260901074200 | 22 | 244 | 0.0 | 0.0 | 0.00 | 0.00 | 0.00 | 99 | 1018.9 |
| 20260901073657 | 22 | 219 | 0.0 | 0.0 | 0.00 | 0.00 | 0.00 | 99 | 1018.8 |
| 20260901073152 | 22 | 218 | 0.0 | 0.0 | 0.00 | 0.00 | 0.00 | 99 | 1018.9 |
| 20260901072647 | 22 | 248 | 0.0 | 0.0 | 0.00 | 0.00 | 0.00 | 99 | 1019.0 |
| 20260901072143 | 22 | 248 | 0.0 | 0.0 | 0.00 | 0.00 | 0.00 | 99 | 1019.0 |
| 20260901071642 | 22 | 254 | 0.0 | 0.0 | 0.00 | 0.00 | 0.00 | 99 | 1019.1 |
| 20260901071137 | 22 | 254 | 0.0 | 0.0 | 0.00 | 0.00 | 0.00 | 99 | 1019.1 |
| 20260901070631 | 22 | 243 | 0.0 | 0.0 | 0.00 | 0.00 | 0.00 | 99 | 1019.1 |
| 20260901070127 | 22 | 239 | 0.0 | 0.0 | 0.00 | 0.00 | 0.00 | 99 | 1019.3 |
| 20260901065620 | 22 | 239 | 0.0 | 0.0 | 0.00 | 0.00 | 0.00 | 99 | 1019.0 |
| 20260901065115 | 22 | 239 | 0.0 | 0.0 | 0.00 | 0.00 | 0.00 | 99 | 1019.2 |
| 20260901064612 | 22 | 239 | 0.0 | 0.0 | 0.00 | 0.00 | 0.00 | 99 | 1019.1 |
| 20260901064108 | 22 | 239 | 0.0 | 0.0 | 0.00 | 0.00 | 0.00 | 99 | 1019.3 |
| 20260901063605 | 22 | 239 | 0.0 | 0.0 | 0.00 | 0.00 | 0.00 | 99 | 1019.4 |
| 20260901063101 | 22 | 239 | 0.0 | 0.0 | 0.00 | 0.00 | 0.00 | 99 | 1019.4 |
| 20260901062556 | 22 | 236 | 0.0 | 0.0 | 0.00 | 0.00 | 0.00 | 99 | 1019.3 |
| 20260901062052 | 22 | 232 | 0.0 | 0.0 | 0.00 | 0.00 | 0.00 | 99 | 1019.3 |
| 20260901061548 | 22 | 231 | 0.0 | 0.0 | 0.00 | 0.00 | 0.00 | 98 | 1019.3 |
| 20260901061043 | 22 | 231 | 0.0 | 0.0 | 0.00 | 0.00 | 0.00 | 98 | 1019.5 |
| 20260901060537 | 22 | 241 | 0.0 | 0.0 | 0.00 | 0.00 | 0.00 | 98 | 1019.6 |
| 20260901060032 | 22 | 239 | 0.0 | 0.0 | 0.00 | 0.00 | 0.00 | 98 | 1019.6 |
| 20260901055528 | 22 | 239 | 0.0 | 0.0 | 0.00 | 0.00 | 0.00 | 98 | 1019.6 |
| 20260901055025 | 22 | 239 | 0.0 | 0.0 | 0.00 | 0.00 | 0.00 | 98 | 1019.6 |
| 20260901054521 | 22 | 233 | 0.0 | 0.0 | 0.00 | 0.00 | 0.00 | 98 | 1019.6 |
| 20260901054016 | 22 | 230 | 0.0 | 0.0 | 0.00 | 0.00 | 0.00 | 98 | 1019.7 |
| 20260901053506 | 22 | 233 | 0.0 | 0.0 | 0.00 | 0.00 | 0.00 | 98 | 1019.8 |
| 20260901053001 | 22 | 233 | 0.0 | 0.0 | 0.00 | 0.00 | 0.00 | 97 | 1020.0 |
| 20260901052452 | 22 | 233 | 0.0 | 0.0 | 0.00 | 0.00 | 0.00 | 97 | 1020.0 |
| 20260901051950 | 23 | 233 | 0.0 | 0.0 | 0.00 | 0.00 | 0.00 | 97 | 1019.7 |
| 20260901051446 | 23 | 233 | 0.0 | 0.0 | 0.00 | 0.00 | 0.00 | 96 | 1019.9 |
| 20260901050944 | 23 | 233 | 0.0 | 0.0 | 0.00 | 0.00 | 0.00 | 96 | 1020.0 |
| 20260901050440 | 23 | 233 | 0.0 | 0.0 | 0.00 | 0.00 | 0.00 | 96 | 1020.0 |
| 20260901045935 | 23 | 233 | 0.0 | 0.0 | 0.00 | 0.00 | 0.00 | 95 | 1020.1 |
| 20260901045430 | 23 | 233 | 0.0 | 0.0 | 0.00 | 0.00 | 0.00 | 95 | 1020.1 |
| 20260901044925 | 23 | 250 | 0.0 | 0.0 | 0.00 | 0.00 | 0.00 | 94 | 1020.1 |
| 20260901044421 | 23 | 250 | 0.0 | 0.0 | 0.00 | 0.00 | 0.00 | 94 | 1020.1 |
| 20260901043917 | 23 | 250 | 0.0 | 0.0 | 0.00 | 0.00 | 0.00 | 94 | 1020.3 |
| 20260901043413 | 23 | 250 | 0.0 | 0.0 | 0.00 | 0.00 | 0.00 | 93 | 1020.0 |
| 20260901042913 | 23 | 250 | 0.0 | 0.0 | 0.00 | 0.00 | 0.00 | 93 | 1020.2 |
| 20260901042412 | 24 | 254 | 0.0 | 0.0 | 0.00 | 0.00 | 0.00 | 92 | 1020.0 |
| 20260901041909 | 24 | 254 | 0.0 | 0.0 | 0.00 | 0.00 | 0.00 | 92 | 1020.0 |
| 20260901041409 | 24 | 231 | 0.0 | 0.0 | 0.00 | 0.00 | 0.00 | 91 | 1019.9 |
| 20260901040908 | 25 | 207 | 0.0 | 0.0 | 0.00 | 0.00 | 0.00 | 90 | 1019.8 |
| 20260901040407 | 25 | 212 | 0.0 | 0.0 | 0.00 | 0.00 | 0.00 | 90 | 1019.9 |
| 20260901035902 | 25 | 216 | 0.0 | 1.6 | 0.00 | 0.00 | 0.00 | 90 | 1019.9 |
| 20260901035401 | 25 | 178 | 0.0 | 3.2 | 0.00 | 0.00 | 0.00 | 90 | 1019.9 |
| 20260901034859 | 25 | 216 | 0.0 | 0.0 | 0.00 | 0.00 | 0.00 | 89 | 1019.8 |
| 20260901034354 | 25 | 212 | 0.0 | 1.6 | 0.00 | 0.00 | 0.00 | 89 | 1019.8 |
| 20260901033849 | 25 | 212 | 0.0 | 1.6 | 0.00 | 0.00 | 0.00 | 90 | 1019.9 |
| 20260901033349 | 25 | 185 | 0.0 | 0.0 | 0.00 | 0.00 | 0.00 | 90 | 1019.9 |
| 20260901032847 | 25 | 205 | 1.6 | 3.2 | 0.00 | 0.00 | 0.00 | 90 | 1019.7 |
| 20260901032346 | 24 | 215 | 0.0 | 0.0 | 0.00 | 0.00 | 0.00 | 91 | 1019.7 |
| 20260901031841 | 24 | 205 | 0.0 | 0.0 | 0.00 | 0.00 | 0.00 | 91 | 1019.9 |
| 20260901031337 | 24 | 231 | 0.0 | 0.0 | 0.00 | 0.00 | 0.00 | 91 | 1019.7 |
| 20260901030836 | 25 | 230 | 0.0 | 0.0 | 0.00 | 0.00 | 0.00 | 91 | 1019.9 |
| 20260901030332 | 25 | 224 | 0.0 | 0.0 | 0.00 | 0.00 | 0.00 | 90 | 1019.9 |
| 20260901025831 | 25 | 231 | 0.0 | 0.0 | 0.00 | 0.00 | 0.00 | 90 | 1020.2 |
| 20260901025326 | 25 | 231 | 0.0 | 0.0 | 0.00 | 0.00 | 0.00 | 90 | 1019.9 |
| 20260901024821 | 25 | 221 | 0.0 | 0.0 | 0.00 | 0.00 | 0.00 | 89 | 1019.8 |
| 20260901024320 | 25 | 219 | 0.0 | 0.0 | 0.00 | 0.00 | 0.00 | 88 | 1020.0 |
| 20260901023819 | 25 | 184 | 0.0 | 0.0 | 0.00 | 0.00 | 0.00 | 88 | 1019.8 |
| 20260901023314 | 25 | 149 | 1.6 | 1.6 | 0.00 | 0.00 | 0.00 | 87 | 1019.9 |
| 20260901022809 | 25 | 205 | 0.0 | 0.0 | 0.00 | 0.00 | 0.00 | 87 | 1020.0 |
| 20260901022306 | 25 | 202 | 0.0 | 1.6 | 0.00 | 0.00 | 0.00 | 86 | 1019.9 |
| 20260901021800 | 25 | 170 | 1.6 | 1.6 | 0.00 | 0.00 | 0.00 | 87 | 1020.0 |
| 20260901021255 | 25 | 193 | 0.0 | 0.0 | 0.00 | 0.00 | 0.00 | 87 | 1019.9 |
| 20260901020751 | 25 | 217 | 0.0 | 0.0 | 0.00 | 0.00 | 0.00 | 88 | 1020.1 |
| 20260901020246 | 25 | 216 | 0.0 | 0.0 | 0.00 | 0.00 | 0.00 | 88 | 1020.0 |
| 20260901015740 | 25 | 216 | 0.0 | 0.0 | 0.00 | 0.00 | 0.00 | 87 | 1020.0 |
| 20260901015237 | 25 | 203 | 0.0 | 0.0 | 0.00 | 0.00 | 0.00 | 87 | 1020.1 |
| 20260901014736 | 25 | 205 | 0.0 | 0.0 | 0.00 | 0.00 | 0.00 | 87 | 1020.1 |
| 20260901014232 | 25 | 242 | 0.0 | 0.0 | 0.00 | 0.00 | 0.00 | 87 | 1020.0 |
| 20260901013728 | 25 | 224 | 0.0 | 0.0 | 0.00 | 0.00 | 0.00 | 87 | 1020.0 |
| 20260901013223 | 25 | 213 | 0.0 | 0.0 | 0.00 | 0.00 | 0.00 | 86 | 1020.0 |
| 20260901012719 | 26 | 200 | 0.0 | 0.0 | 0.00 | 0.00 | 0.00 | 86 | 1020.0 |
| 20260901012218 | 26 | 235 | 0.0 | 0.0 | 0.00 | 0.00 | 0.00 | 85 | 1020.1 |
| 20260901011714 | 26 | 331 | 0.0 | 1.6 | 0.00 | 0.00 | 0.00 | 85 | 1019.9 |
| 20260901011214 | 26 | 191 | 0.0 | 0.0 | 0.00 | 0.00 | 0.00 | 84 | 1020.0 |
| 20260901010708 | 26 | 127 | 0.0 | 3.2 | 0.00 | 0.00 | 0.00 | 84 | 1019.8 |
| 20260901010203 | 26 | 216 | 0.0 | 1.6 | 0.00 | 0.00 | 0.00 | 83 | 1020.0 |
| 20260901005702 | 26 | 217 | 0.0 | 3.2 | 0.00 | 0.00 | 0.00 | 82 | 1019.9 |
| 20260901005158 | 27 | 227 | 0.0 | 1.6 | 0.00 | 0.00 | 0.00 | 81 | 1019.8 |
| 20260901004657 | 27 | 41 | 1.6 | 3.2 | 0.00 | 0.00 | 0.00 | 81 | 1019.9 |
| 20260901004151 | 27 | 193 | 1.6 | 3.2 | 0.00 | 0.00 | 0.00 | 80 | 1019.9 |
| 20260901003646 | 27 | 258 | 0.0 | 11.3 | 0.00 | 0.00 | 0.00 | 80 | 1019.7 |
| 20260901003145 | 27 | 164 | 0.0 | 0.0 | 0.00 | 0.00 | 0.00 | 81 | 1019.8 |
| 20260901002640 | 27 | 13 | 1.6 | 1.6 | 0.00 | 0.00 | 0.00 | 80 | 1019.8 |
| 20260901002134 | 27 | 235 | 0.0 | 0.0 | 0.00 | 0.00 | 0.00 | 80 | 1019.8 |
| 20260901001630 | 27 | 200 | 0.0 | 0.0 | 0.00 | 0.00 | 0.00 | 80 | 1019.7 |
| 20260901001125 | 27 | 201 | 0.0 | 1.6 | 0.00 | 0.00 | 0.00 | 79 | 1019.5 |
| 20260901000620 | 27 | 218 | 0.0 | 0.0 | 0.00 | 0.00 | 0.00 | 78 | 1019.5 |
| 20260901000115 | 27 | 242 | 0.0 | 0.0 | 0.00 | 0.00 | 0.00 | 77 | 1019.5 |
| 20260831235609 | 27 | 350 | 0.0 | 1.6 | 0.00 | 0.00 | 0.00 | 77 | 1019.3 |
| 20260831235104 | 27 | 250 | 0.0 | 0.0 | 0.00 | 0.00 | 0.00 | 77 | 1019.4 |
| 20260831234558 | 27 | 257 | 0.0 | 0.0 | 0.00 | 0.00 | 0.00 | 76 | 1019.5 |
| 20260831234054 | 28 | 259 | 0.0 | 0.0 | 0.00 | 0.00 | 0.00 | 75 | 1019.2 |
| 20260831233549 | 28 | 264 | 0.0 | 0.0 | 0.00 | 0.00 | 0.00 | 75 | 1019.3 |
| 20260831233045 | 28 | 256 | 0.0 | 0.0 | 0.00 | 0.00 | 0.00 | 74 | 1019.4 |
| 20260831232540 | 28 | 254 | 0.0 | 0.0 | 0.00 | 0.00 | 0.00 | 73 | 1019.4 |
| 20260831232035 | 28 | 252 | 0.0 | 0.0 | 0.00 | 0.00 | 0.00 | 72 | 1019.3 |
| 20260831231532 | 28 | 242 | 0.0 | 0.0 | 0.00 | 0.00 | 0.00 | 71 | 1019.1 |
| 20260831231027 | 29 | 240 | 0.0 | 1.6 | 0.00 | 0.00 | 0.00 | 70 | 1019.3 |
| 20260831230522 | 29 | 252 | 0.0 | 0.0 | 0.00 | 0.00 | 0.00 | 69 | 1019.1 |
| 20260831230017 | 30 | 248 | 0.0 | 0.0 | 0.00 | 0.00 | 0.00 | 68 | 1019.2 |
| 20260831225513 | 30 | 255 | 0.0 | 1.6 | 0.00 | 0.00 | 0.00 | 68 | 1019.1 |
| 20260831225012 | 30 | 248 | 0.0 | 1.6 | 0.00 | 0.00 | 0.00 | 67 | 1019.2 |
| 20260831224507 | 30 | 309 | 0.0 | 0.0 | 0.00 | 0.00 | 0.00 | 67 | 1019.0 |
| 20260831224002 | 30 | 287 | 0.0 | 1.6 | 0.00 | 0.00 | 0.00 | 66 | 1019.1 |
| 20260831223458 | 30 | 264 | 0.0 | 1.6 | 0.00 | 0.00 | 0.00 | 66 | 1019.1 |
| 20260831222954 | 31 | 266 | 1.6 | 4.8 | 0.00 | 0.00 | 0.00 | 65 | 1019.1 |
| 20260831222450 | 31 | 311 | 0.0 | 3.2 | 0.00 | 0.00 | 0.00 | 64 | 1019.3 |
| 20260831221949 | 31 | 250 | 1.6 | 1.6 | 0.00 | 0.00 | 0.00 | 63 | 1019.4 |
| 20260831221445 | 31 | 285 | 3.2 | 4.8 | 0.00 | 0.00 | 0.00 | 62 | 1019.3 |
| 20260831220940 | 31 | 337 | 0.0 | 3.2 | 0.00 | 0.00 | 0.00 | 61 | 1019.1 |
| 20260831220436 | 32 | 208 | 0.0 | 3.2 | 0.00 | 0.00 | 0.00 | 60 | 1019.0 |
| 20260831215931 | 32 | 203 | 0.0 | 1.6 | 0.00 | 0.00 | 0.00 | 59 | 1019.1 |
| 20260831215426 | 32 | 13 | 6.4 | 6.4 | 0.00 | 0.00 | 0.00 | 57 | 1019.1 |
| 20260831214923 | 32 | 294 | 1.6 | 4.8 | 0.00 | 0.00 | 0.00 | 58 | 1019.0 |
| 20260831214420 | 32 | 209 | 0.0 | 1.6 | 0.00 | 0.00 | 0.00 | 58 | 1019.1 |
| 20260831213915 | 32 | 322 | 0.0 | 0.0 | 0.00 | 0.00 | 0.00 | 57 | 1019.1 |
| 20260831213412 | 33 | 240 | 0.0 | 1.6 | 0.00 | 0.00 | 0.00 | 54 | 1019.0 |
| 20260831212912 | 33 | 184 | 0.0 | 0.0 | 0.00 | 0.00 | 0.00 | 53 | 1018.9 |
| 20260831212408 | 33 | 356 | 3.2 | 6.4 | 0.00 | 0.00 | 0.00 | 52 | 1019.2 |
| 20260831211907 | 33 | 305 | 1.6 | 1.6 | 0.00 | 0.00 | 0.00 | 54 | 1019.0 |
| 20260831211402 | 33 | 45 | 1.6 | 4.8 | 0.00 | 0.00 | 0.00 | 54 | 1019.1 |
| 20260831210856 | 34 | 237 | 1.6 | 3.2 | 0.00 | 0.00 | 0.00 | 52 | 1019.0 |
| 20260831210352 | 34 | 353 | 1.6 | 3.2 | 0.00 | 0.00 | 0.00 | 53 | 1019.0 |
| 20260831205847 | 34 | 245 | 0.0 | 1.6 | 0.00 | 0.00 | 0.00 | 51 | 1019.1 |
| 20260831205343 | 33 | 240 | 0.0 | 3.2 | 0.00 | 0.00 | 0.00 | 53 | 1019.0 |
| 20260831204838 | 33 | 220 | 1.6 | 1.6 | 0.00 | 0.00 | 0.00 | 52 | 1019.1 |
| 20260831204337 | 35 | 325 | 3.2 | 3.2 | 0.00 | 0.00 | 0.00 | 54 | 1019.0 |
| 20260831203836 | 33 | 229 | 0.0 | 0.0 | 0.00 | 0.00 | 0.00 | 54 | 1019.0 |
| 20260831203331 | 33 | 248 | 1.6 | 1.6 | 0.00 | 0.00 | 0.00 | 54 | 1019.2 |
| 20260831202829 | 33 | 331 | 8.0 | 9.7 | 0.00 | 0.00 | 0.00 | 56 | 1019.0 |
| 20260831202324 | 33 | 7 | 4.8 | 4.8 | 0.00 | 0.00 | 0.00 | 56 | 1019.0 |